Olean, NY

2:53 PM EST on February 25, 2018 (GMT -0500)
Cattaraugus County-Olean

Weather History for KOLE - October, 2012

Change the Weather History Date:

Monday, October 15, 2012

  Actual Average (KBFD) Record (KBFD)
Temperature  
Mean Temperature 52 °F -  
Max Temperature 62 °F 59 °F 77 °F (1989)
Min Temperature 41 °F 39 °F 25 °F (1999)
Degree Days  
Heating Degree Days 14    
Growing Degree Days 2 (Base 50)    
Moisture  
Dew Point 45 °F    
Average Humidity 80    
Maximum Humidity 94    
Minimum Humidity 62    
Precipitation  
Precipitation 0.00 in - - ()
Sea Level Pressure  
Sea Level Pressure 29.69 in    
Wind  
Wind Speed 10 mph ()    
Max Wind Speed 17 mph    
Max Gust Speed 29 mph    
Visibility 9.6 miles    
Events Rain    
Averages and records for this station are not official NWS values.
T = Trace of Precipitation, MM = Missing Value Source: Averaged Metar Reports

Daily Weather History Graph

Daily Weather History Graph

Search for Another Location

Airport or City:

Trip Planner

Search our weather history database for the weather conditions in past years. The results will help you decide how hot, cold, wet, or windy it might be!

Date:

Astronomy

Oct. 15, 2012 Rise Set
Actual Time 7:26 AM EDT 6:30 PM EDT
Civil Twilight 6:58 AM EDT 6:59 PM EDT
Nautical Twilight 6:25 AM EDT 7:31 PM EDT
Astronomical Twilight 5:53 AM EDT 8:03 PM EDT
Moon 7:35 AM EDT (10/15) 6:27 PM EDT (10/15)
Length of Visible Light 12h 00m
Length of Day
11h 04m
New Moon, 0% of the Moon is Illuminated
Oct 15
New Moon
Oct 21
First Quarter
Oct 29
Full
Nov 6
Last Quarter
Nov 13
New

Hourly Weather History & Observations

Time (EDT) Temp. Windchill Dew Point Humidity Pressure Visibility Wind Dir Wind Speed Gust Speed Precip Events Conditions
12:15 AM 60.8 °F - 50.0 °F 68% 29.68 in 10.0 mi South 16.1 mph 26.5 mph N/A   Overcast
12:35 AM 60.8 °F - 50.0 °F 68% 29.66 in 10.0 mi South 17.3 mph 21.9 mph N/A   Overcast
12:55 AM 60.8 °F - 50.0 °F 68% 29.65 in 10.0 mi South 13.8 mph 24.2 mph N/A   Mostly Cloudy
1:15 AM 60.8 °F - 50.0 °F 68% 29.64 in 10.0 mi SSW 13.8 mph 19.6 mph N/A   Overcast
1:35 AM 60.8 °F - 50.0 °F 68% 29.64 in 10.0 mi SSW 12.7 mph 23.0 mph N/A   Overcast
1:55 AM 60.8 °F - 50.0 °F 68% 29.64 in 10.0 mi SSW 11.5 mph 19.6 mph N/A   Overcast
2:15 AM 62.6 °F - 50.0 °F 63% 29.63 in 10.0 mi SSW 15.0 mph 21.9 mph N/A   Overcast
2:35 AM 62.6 °F - 50.0 °F 63% 29.62 in 10.0 mi SSW 15.0 mph 19.6 mph N/A   Overcast
2:55 AM 62.6 °F - 50.0 °F 63% 29.61 in 10.0 mi SSW 9.2 mph 21.9 mph N/A   Overcast
3:15 AM 62.6 °F - 50.0 °F 63% 29.60 in 10.0 mi SSW 11.5 mph 18.4 mph N/A   Overcast
3:35 AM 60.8 °F - 53.6 °F 77% 29.62 in 7.0 mi WSW 9.2 mph 20.7 mph N/A Rain Heavy Rain
3:55 AM 57.2 °F - 53.6 °F 88% 29.61 in 10.0 mi SW 5.8 mph - N/A Rain Light Rain
4:15 AM 55.4 °F - 53.6 °F 94% 29.60 in 10.0 mi SW 8.1 mph - N/A   Overcast
4:35 AM 57.2 °F - 53.6 °F 88% 29.60 in 10.0 mi SSW 9.2 mph - N/A Rain Light Rain
4:55 AM 59.0 °F - 53.6 °F 82% 29.60 in 7.0 mi SW 12.7 mph 23.0 mph N/A Rain Rain
5:15 AM 57.2 °F - 53.6 °F 88% 29.59 in 10.0 mi SSW 11.5 mph 19.6 mph N/A   Drizzle
5:55 AM 55.4 °F - 51.8 °F 88% 29.61 in 10.0 mi SW 8.1 mph - N/A   Overcast
6:15 AM 55.4 °F - 51.8 °F 88% 29.61 in 10.0 mi SW 9.2 mph 19.6 mph N/A   Overcast
6:35 AM 55.4 °F - 53.6 °F 94% 29.61 in 10.0 mi WSW 6.9 mph - N/A   Overcast
6:55 AM 55.4 °F - 51.8 °F 88% 29.62 in 10.0 mi West 8.1 mph 16.1 mph N/A   Overcast
7:15 AM 53.6 °F - 50.0 °F 88% 29.63 in 10.0 mi WSW 12.7 mph 28.8 mph N/A   Overcast
7:35 AM 53.6 °F - 48.2 °F 82% 29.65 in 10.0 mi West 11.5 mph 21.9 mph N/A   Overcast
8:15 AM 51.8 °F - 46.4 °F 82% 29.67 in 10.0 mi West 11.5 mph 17.3 mph N/A   Overcast
8:35 AM 50.0 °F - 46.4 °F 87% 29.68 in 10.0 mi West 8.1 mph 19.6 mph N/A   Overcast
8:55 AM 50.0 °F - 44.6 °F 82% 29.69 in 10.0 mi WSW 8.1 mph 24.2 mph N/A   Overcast
9:15 AM 50.0 °F - 44.6 °F 82% 29.69 in 10.0 mi WSW 10.4 mph 20.7 mph N/A   Overcast
9:35 AM 50.0 °F - 44.6 °F 82% 29.69 in 10.0 mi WSW 9.2 mph 16.1 mph N/A   Overcast
9:55 AM 50.0 °F - 42.8 °F 76% 29.69 in 10.0 mi SW 11.5 mph 16.1 mph N/A   Overcast
10:15 AM 50.0 °F - 42.8 °F 76% 29.69 in 10.0 mi SW 12.7 mph 19.6 mph N/A   Overcast
10:35 AM 50.0 °F - 42.8 °F 76% 29.70 in 10.0 mi WSW 11.5 mph 20.7 mph N/A   Overcast
10:55 AM 50.0 °F - 42.8 °F 76% 29.70 in 10.0 mi WSW 11.5 mph 19.6 mph N/A   Overcast
11:15 AM 51.8 °F - 42.8 °F 71% 29.70 in 10.0 mi WSW 8.1 mph 25.3 mph N/A   Overcast
11:35 AM 51.8 °F - 42.8 °F 71% 29.70 in 10.0 mi WSW 6.9 mph 17.3 mph N/A   Overcast
11:55 AM 51.8 °F - 42.8 °F 71% 29.70 in 10.0 mi SW 10.4 mph - N/A   Overcast
12:15 PM 51.8 °F - 41.0 °F 67% 29.70 in 10.0 mi SW 12.7 mph 18.4 mph N/A   Overcast
12:35 PM 51.8 °F - 42.8 °F 71% 29.70 in 10.0 mi SW 10.4 mph 19.6 mph N/A   Overcast
12:55 PM 51.8 °F - 42.8 °F 71% 29.69 in 10.0 mi WSW 9.2 mph 17.3 mph N/A   Overcast
1:15 PM 53.6 °F - 42.8 °F 67% 29.68 in 10.0 mi WSW 10.4 mph 17.3 mph N/A   Overcast
1:35 PM 53.6 °F - 42.8 °F 67% 29.68 in 10.0 mi West 12.7 mph 27.6 mph N/A   Overcast
1:55 PM 53.6 °F - 41.0 °F 62% 29.67 in 10.0 mi WSW 10.4 mph 17.3 mph N/A   Overcast
2:15 PM 51.8 °F - 41.0 °F 67% 29.68 in 10.0 mi West 6.9 mph 23.0 mph N/A   Overcast
2:35 PM 51.8 °F - 41.0 °F 67% 29.68 in 10.0 mi WSW 6.9 mph - N/A   Overcast
2:55 PM 51.8 °F - 41.0 °F 67% 29.68 in 10.0 mi West 9.2 mph 17.3 mph N/A   Overcast
3:15 PM 51.8 °F - 41.0 °F 67% 29.68 in 10.0 mi WSW 11.5 mph 19.6 mph N/A   Overcast
3:35 PM 51.8 °F - 41.0 °F 67% 29.68 in 10.0 mi West 12.7 mph 26.5 mph N/A   Overcast
3:55 PM 46.4 °F 42.9 °F 42.8 °F 87% 29.70 in 7.0 mi West 6.9 mph 21.9 mph N/A Rain Rain
4:15 PM 46.4 °F 42.9 °F 44.6 °F 93% 29.71 in 10.0 mi West 6.9 mph - N/A   Drizzle
4:35 PM 46.4 °F 40.7 °F 42.8 °F 87% 29.70 in 10.0 mi WSW 12.7 mph 20.7 mph N/A   Overcast
4:55 PM 46.4 °F 43.5 °F 42.8 °F 87% 29.71 in 10.0 mi West 5.8 mph 16.1 mph N/A   Overcast
5:15 PM 46.4 °F 42.9 °F 42.8 °F 87% 29.71 in 10.0 mi West 6.9 mph - N/A Rain Rain
5:35 PM 44.6 °F 39.2 °F 42.8 °F 93% 29.72 in 5.0 mi West 10.4 mph 21.9 mph N/A   Drizzle
5:55 PM 44.6 °F 41.4 °F 42.8 °F 93% 29.73 in 10.0 mi West 5.8 mph 19.6 mph N/A   Overcast
6:15 PM 44.6 °F 40.2 °F 41.0 °F 87% 29.72 in 10.0 mi West 8.1 mph - N/A   Overcast
6:35 PM 44.6 °F 40.2 °F 41.0 °F 87% 29.73 in 10.0 mi WSW 8.1 mph - N/A   Overcast
6:55 PM 44.6 °F 40.2 °F 41.0 °F 87% 29.73 in 10.0 mi West 8.1 mph - N/A   Drizzle
7:15 PM 42.8 °F 39.3 °F 41.0 °F 93% 29.74 in 10.0 mi WNW 5.8 mph - N/A Rain Rain
7:35 PM 42.8 °F 39.3 °F 41.0 °F 93% 29.75 in 10.0 mi WNW 5.8 mph - N/A Rain Light Rain
7:55 PM 42.8 °F 38.0 °F 41.0 °F 93% 29.75 in 10.0 mi West 8.1 mph 19.6 mph N/A Rain Light Rain
8:15 PM 42.8 °F 38.6 °F 41.0 °F 93% 29.75 in 7.0 mi West 6.9 mph - N/A Rain Rain
8:35 PM 42.8 °F 37.5 °F 41.0 °F 93% 29.76 in 7.0 mi West 9.2 mph - N/A Rain Rain
8:55 PM 42.8 °F 38.6 °F 41.0 °F 93% 29.77 in 10.0 mi WNW 6.9 mph - N/A   Overcast
9:15 PM 42.8 °F 36.6 °F 37.4 °F 81% 29.77 in 7.0 mi WNW 11.5 mph 18.4 mph N/A   Overcast
9:35 PM 41.0 °F 36.4 °F 39.2 °F 93% 29.78 in 10.0 mi WNW 6.9 mph 17.3 mph N/A   Overcast
9:55 PM 41.0 °F 36.4 °F 39.2 °F 93% 29.78 in 7.0 mi WNW 6.9 mph 21.9 mph N/A   Light Drizzle
10:15 PM 41.0 °F 36.4 °F 37.4 °F 87% 29.78 in 10.0 mi WNW 6.9 mph - N/A   Overcast
10:35 PM 41.0 °F 35.8 °F 37.4 °F 87% 29.79 in 10.0 mi WNW 8.1 mph - N/A   Light Drizzle
10:55 PM 41.0 °F 35.2 °F 37.4 °F 87% 29.79 in 10.0 mi WNW 9.2 mph 17.3 mph N/A Rain Rain
11:15 PM 41.0 °F 36.4 °F 37.4 °F 87% 29.79 in 10.0 mi WNW 6.9 mph 19.6 mph N/A   Overcast
11:35 PM 41.0 °F 35.8 °F 37.4 °F 87% 29.80 in 10.0 mi WNW 8.1 mph 18.4 mph N/A   Overcast
11:55 PM 41.0 °F 34.3 °F 37.4 °F 87% 29.80 in 10.0 mi WNW 11.5 mph 19.6 mph N/A   Drizzle